DW4691 Weather Reports


time (UTC)temp
C
wind
direction
speed
KPH
gust
KPH
rain 1hr
cm
rain 24hr
cm
rain mn
cm
humidity
%
barometer
mb
20260510214552 32 0 0.0 3.2 0.00 0.00 0.00 63 1012.3
20260510213046 32 0 0.0 4.8 0.00 0.00 0.00 59 1012.5
20260510211542 32 0 0.0 0.0 0.00 0.00 0.00 61 1012.6
20260510210048 32 0 0.0 1.6 0.00 0.00 0.00 60 1012.7
20260510204557 33 0 0.0 1.6 0.00 0.00 0.00 58 1012.7
20260510203045 32 0 0.0 4.8 0.00 0.00 0.00 59 1012.7
20260510201547 33 0 0.0 6.4 0.00 0.00 0.00 56 1012.4
20260510200043 33 0 0.0 3.2 0.00 0.00 0.00 55 1012.5
20260510194543 33 0 0.0 6.4 0.00 0.00 0.00 60 1012.4
20260510193048 32 132 0.0 4.8 0.00 0.00 0.00 64 1012.5
20260510191545 33 0 0.0 8.0 0.00 0.00 0.00 62 1012.6
20260510190044 32 202 0.0 6.4 0.00 0.00 0.00 61 1012.5
20260510184545 32 0 0.0 4.8 0.00 0.00 0.00 60 1012.6
20260510183043 32 239 0.0 4.8 0.00 0.00 0.00 63 1012.9
20260510181604 31 0 0.0 3.2 0.00 0.00 0.00 66 1013.1
20260510174544 31 0 0.0 8.0 0.00 0.00 0.00 67 1013.3
20260510173051 31 0 0.0 9.7 0.00 0.00 0.00 67 1013.6
20260510171601 31 0 0.0 8.0 0.00 0.00 0.00 70 1013.7
20260510170049 31 0 0.0 6.4 0.00 0.00 0.00 67 1013.8
20260510164554 30 167 0.0 6.4 0.00 0.00 0.00 70 1014.0
20260510163051 30 165 0.0 6.4 0.00 0.00 0.00 71 1014.1
20260510161545 30 0 0.0 6.4 0.00 0.00 0.00 69 1014.4
20260510160048 29 0 0.0 4.8 0.00 0.00 0.00 70 1014.5
20260510154552 28 0 0.0 3.2 0.00 0.00 0.00 72 1014.5
20260510153054 28 0 0.0 6.4 0.00 0.00 0.00 74 1014.5
20260510151548 27 192 0.0 6.4 0.00 0.00 0.00 76 1014.5
20260510150113 27 0 0.0 4.8 0.00 0.00 0.00 79 1014.8
20260510144552 26 0 0.0 4.8 0.00 0.00 0.00 78 1014.8
20260510143053 26 0 0.0 3.2 0.00 0.00 0.00 82 1014.7
20260510141542 26 0 0.0 6.4 0.00 0.00 0.00 86 1014.6
20260510140042 25 0 0.0 4.8 0.00 0.00 0.00 87 1014.6
20260510134545 25 0 0.0 9.7 0.00 0.00 0.00 88 1014.6
20260510133045 24 0 0.0 3.2 0.00 0.00 0.00 89 1014.5
20260510131544 23 0 0.0 1.6 0.00 0.00 0.00 90 1014.0
20260510130042 23 0 0.0 0.0 0.00 0.00 0.00 90 1013.8
20260510124539 23 0 0.0 0.0 0.00 0.00 0.00 90 1013.6
20260510123046 23 0 0.0 0.0 0.00 0.00 0.00 91 1013.4
20260510121545 23 0 0.0 0.0 0.00 0.00 0.00 91 1013.2
20260510120044 23 0 0.0 0.0 0.00 0.00 0.00 91 1013.0
20260510114547 23 0 0.0 0.0 0.00 0.00 0.00 91 1012.5
20260510113041 22 0 0.0 0.0 0.00 0.00 0.00 91 1012.2
20260510111553 22 0 0.0 0.0 0.00 0.00 0.00 91 1011.7
20260510110046 22 0 0.0 4.8 0.00 0.00 0.00 91 1011.5
20260510104542 22 0 0.0 0.0 0.00 0.00 0.00 92 1011.3
20260510103045 22 0 0.0 0.0 0.00 0.00 0.00 92 1011.1
20260510101544 22 0 0.0 0.0 0.00 0.00 0.00 93 1011.1
20260510100045 21 0 0.0 0.0 0.00 0.00 0.00 92 1011.1
20260510094559 21 0 0.0 0.0 0.00 0.00 0.00 92 1010.9
20260510093059 21 0 0.0 0.0 0.00 0.00 0.00 91 1010.8
20260510091544 21 0 0.0 0.0 0.00 0.00 0.00 91 1010.7
20260510090053 21 0 0.0 0.0 0.00 0.00 0.00 91 1010.7
20260510084542 21 0 0.0 0.0 0.00 0.00 0.00 91 1010.8
20260510083055 21 0 0.0 0.0 0.00 0.00 0.00 91 1010.8
20260510081546 21 0 0.0 0.0 0.00 0.00 0.00 91 1010.8
20260510080056 21 0 0.0 0.0 0.00 0.00 0.00 91 1010.9
20260510074549 21 0 0.0 0.0 0.00 0.00 0.00 90 1010.7
20260510073052 21 0 0.0 0.0 0.00 0.00 0.00 90 1010.8
20260510071552 21 0 0.0 0.0 0.00 0.00 0.00 90 1010.8
20260510070047 22 0 0.0 0.0 0.00 0.00 0.00 90 1011.2
20260510064551 22 0 0.0 0.0 0.00 0.00 0.00 89 1011.2
20260510063044 22 0 0.0 0.0 0.00 0.00 0.00 89 1011.2
20260510061543 22 0 0.0 0.0 0.00 0.00 0.00 89 1011.2
20260510060045 22 0 0.0 0.0 0.00 0.00 0.00 88 1011.2
20260510054550 23 0 0.0 0.0 0.00 0.00 0.00 88 1011.1
20260510053046 23 0 0.0 0.0 0.00 0.00 0.00 87 1011.3
20260510051552 23 0 0.0 0.0 0.00 0.00 0.00 86 1011.5
20260510050044 23 0 0.0 0.0 0.00 0.00 0.00 85 1011.4
20260510044547 23 0 0.0 0.0 0.00 0.00 0.00 84 1011.3
20260510043053 23 0 0.0 0.0 0.00 0.00 0.00 83 1011.5
20260510041551 23 0 0.0 0.0 0.00 0.00 0.00 82 1011.4
20260510040051 24 0 0.0 3.2 0.00 0.00 0.00 80 1011.5
20260510034546 24 0 0.0 6.4 0.00 0.00 0.00 78 1011.4
20260510033058 25 0 0.0 9.7 0.00 0.00 0.00 77 1011.7
20260510031543 25 0 0.0 6.4 0.00 0.00 0.00 81 1011.8
20260510030059 25 0 0.0 3.2 0.00 0.00 0.00 83 1011.5
20260510024547 23 213 0.0 4.8 0.00 0.00 0.00 80 1011.0
20260510023054 23 0 0.0 0.0 0.00 0.00 0.00 78 1010.1
20260510021553 24 0 0.0 0.0 0.00 0.00 0.00 75 1009.5
20260510020044 25 0 0.0 0.0 0.00 0.00 0.00 72 1009.4
20260510014556 26 0 0.0 0.0 0.00 0.00 0.00 69 1009.1
20260510013042 26 0 0.0 8.0 0.00 0.00 0.00 65 1008.9
20260510011551 27 0 0.0 3.2 0.00 0.00 0.00 64 1008.9
20260510010052 27 0 0.0 6.4 0.00 0.00 0.00 67 1008.7
20260510004550 28 0 0.0 0.0 0.00 0.00 0.00 84 1008.4
20260510003051 28 0 0.0 0.0 0.00 0.00 0.00 83 1008.2
20260510001551 28 0 0.0 0.0 0.00 0.00 0.00 82 1008.0
20260510000051 28 0 0.0 0.0 0.00 0.00 0.00 81 1007.9
20260509234553 28 0 0.0 0.0 0.00 0.00 0.00 80 1008.0
20260509233047 28 0 0.0 0.0 0.00 0.00 0.00 78 1008.0
20260509231545 29 0 0.0 0.0 0.00 0.00 0.00 77 1007.9
20260509230057 30 0 0.0 0.0 0.00 0.00 0.00 75 1007.8
20260509224543 30 0 0.0 0.0 0.00 0.00 0.00 71 1007.6
20260509223044 31 0 0.0 0.0 0.00 0.00 0.00 69 1007.6
20260509221542 31 0 0.0 0.0 0.00 0.00 0.00 69 1007.5
20260509220050 31 0 0.0 0.0 0.00 0.00 0.00 64 1007.6